Hourly Data Report for September 29, 2017

All times are specified in Local Standard Time (LST). Add 1 hour to adjust for Daylight Saving Time where and when it is observed.

SUMMERSIDE
PRINCE EDWARD ISLAND

46°26'28.000" N
63°50'17.000" W
12.20 m
8300596
71702
WSD

Download Data

Hourly Data (September 2017)
Hourly Data Report for September 29, 2017
Temp Definition
°C
Dew Point Temp Definition
°C
Rel Hum Definition
%
Wind Dir Definition
10's deg

Wind Spd Definition
km/h
Visibility Definition
km
Stn Press Definition
kPa
Hmdx Definition


Wind Chill Definition


Weather Definition


TIME
00:00 10.7 6.0 73 31 18   100.32     LegendNANA
01:00 10.6 5.7 72 30 22   100.35     LegendNANA
02:00 9.7 5.5 75 31 21   100.37     LegendNANA
03:00 9.5 5.0 74 32 20   100.37     LegendNANA
04:00 8.8 4.7 75 31 19   100.39     LegendNANA
05:00 9.2 4.7 74 31 19   100.42     LegendNANA
06:00 9.2 4.6 73 31 26   100.46     LegendNANA
07:00 9.3 4.9 74 31 18   100.54     LegendNANA
08:00 9.6 4.7 71 32 20   100.60     LegendNANA
09:00 9.9 5.0 72 32 26   100.66     LegendNANA
10:00 10.1 5.2 72 32 25   100.72     LegendNANA
11:00 10.7 5.2 69 33 25   100.78     LegendNANA
12:00 10.3 5.7 73 33 19   100.83     LegendNANA
13:00 9.3 7.3 87 36 28   100.89     LegendNANA
14:00 9.7 7.5 86 33 28   100.98     LegendNANA
15:00 10.1 6.1 76 36 24   101.03     LegendNANA
16:00 10.2 5.6 73 35 24   101.09     LegendNANA
17:00 9.9 5.1 72 35 23   101.17     LegendNANA
18:00 9.6 5.4 75 35 20   101.27     LegendNANA
19:00 9.1 5.2 76 34 19   101.34     LegendNANA
20:00 9.2 4.5 73 36 29   101.40     LegendNANA
21:00 8.2 4.9 80 33 17   101.46     LegendNANA
22:00 8.3 5.1 80 36 18   101.49     LegendNANA
23:00 9.0 4.8 75 36 21   101.53     LegendNANA

Notes on Data Quality.

Legend

  • E = Estimated
  • M = Missing
  • NA = Not Available
  • ‡ = Partner data that is not subject to review by the National Climate Archives
Date modified: